User: anonymous   Login
Location: Geremba
(10.4250°N, 67.2394°W)
Time: 07:48:49
(UTC+00:00)
Language:

Cosmos 1939 Rocket - Orbit

View from above orbital plane
View from above orbital plane
View from above satellite
View from above satellite

Ground track
Ground track

The orbit data is extracted from the following two-line orbital elements,

1 19046U 88032B   24203.90945288  .00007572  00000-0  45858-3 0  9991
2 19046  97.4499 184.7462 0033050 137.1813 223.2000 15.10412585961851
Epoch (UTC): 21 July 2024 21:49:36
Eccentricity: 0.0033050
inclination: 97.4499°
perigee height: 512 km
apogee height: 558 km
right ascension of ascending node: 184.7462°
argument of perigee: 137.1813°
revolutions per day: 15.10412585
mean anomaly at epoch: 223.2000°
orbit number at epoch: 96185

The dashed part of the orbit path shows where the satellite is in the earth's shadow,  

DLR